"startDT [UTC]","vpos","CH4 [ppm]","stdev(CH4) [ppm]","CO2 [ppm]","stdev(CO2) [ppm]","H2O_reported [%]","stdev(H2O_reported)","CavityPressure [torr]","CavityTemp [C]","OutletValve","CH4_dry [ppm]","CO2_dry [ppm]","DasTemp [C]","EtalonTemp [C]","WarmBoxTemp [C]","MPVPosition","T_ECpre [C]","T_EC1 [C]","T_EC2 [C]","p_inlet [hPa]","p_in [hPa]","p_out [hPa]","T_inlet [C]","RH_inlet [%]","dwpt_inlet [C]","T_vent [C]","RH_vent [%]","dwpt_vent [C]","flow_vent [l min-1]","flow_inlet [l min-1]","dwpt_sample [C]","T_room [C]"
2016-12-25 00:00:00,0.0,1.96193,0.00038,410.503,0.036,0.0302,0.0015,139.999,45.000,31790.25897,1.96253,410.650,33.561,45.072,45.000,0.00,0.06,-272.87,-272.91,-4,535,-952,18.9,1.1,-37.3,19.3,1.1,-37.2,0.48,1.99,-21.7,25.6
2016-12-25 00:01:00,0.0,1.96209,0.00032,410.496,0.038,0.0316,0.0021,139.997,45.000,31790.60824,1.96267,410.653,33.562,45.072,45.000,0.00,0.06,-272.88,-272.91,-4,535,-952,18.9,1.2,-36.9,19.3,1.2,-36.6,0.48,1.98,-21.7,25.5
2016-12-25 00:02:00,0.0,1.96244,0.00034,410.512,0.033,0.0335,0.0022,139.997,45.000,31790.39091,1.96308,410.677,33.562,45.072,45.000,0.00,0.06,-272.88,-272.91,-4,535,-952,18.9,1.2,-36.4,19.3,1.2,-36.2,0.48,1.97,-21.7,25.6
2016-12-25 00:03:00,0.0,1.96212,0.00033,410.533,0.043,0.0341,0.0020,139.997,45.000,31790.02920,1.96278,410.700,33.561,45.072,45.000,0.00,0.06,-272.88,-272.90,-4,535,-952,18.9,1.3,-36.1,19.3,1.3,-35.8,0.48,1.96,-21.7,25.6
2016-12-25 00:04:00,0.0,1.96223,0.00032,410.520,0.032,0.0342,0.0017,140.000,45.000,31790.58838,1.96289,410.690,33.563,45.072,45.000,0.00,0.06,-272.88,-272.91,-4,535,-952,18.9,1.3,-36.2,19.3,1.3,-35.6,0.48,1.96,-21.7,25.5
2016-12-25 00:05:00,0.0,1.96227,0.00035,410.502,0.036,0.0317,0.0017,140.001,45.000,31791.44365,1.96287,410.659,33.563,45.072,45.000,0.00,0.06,-272.88,-272.91,-4,535,-952,18.9,1.2,-36.8,19.3,1.2,-36.0,0.48,1.94,-21.7,25.5
2016-12-25 00:06:00,0.0,1.96254,0.00040,410.526,0.033,0.0299,0.0021,139.998,45.000,31790.44853,1.96311,410.672,33.563,45.072,45.000,0.00,0.06,-272.88,-272.91,-4,535,-952,18.9,1.1,-37.5,19.3,1.2,-36.6,0.48,1.94,-21.7,25.5
2016-12-25 00:07:00,0.0,1.96265,0.00070,410.462,0.059,0.0285,0.0018,139.998,45.000,31789.01490,1.96322,410.605,33.563,45.072,45.000,0.00,0.06,-272.88,-272.91,-4,535,-952,18.9,1.1,-38.0,19.3,1.1,-37.0,0.48,1.93,-21.7,25.6
2016-12-25 00:08:00,0.0,1.96210,0.00040,410.397,0.034,0.0283,0.0013,140.002,45.000,31791.82967,1.96266,410.537,33.564,45.072,45.000,0.00,0.06,-272.88,-272.92,-4,535,-952,18.9,1.0,-38.2,19.3,1.1,-37.4,0.48,1.93,-21.7,25.5
2016-12-25 00:09:00,0.0,1.96185,0.00029,410.389,0.031,0.0274,0.0020,139.998,45.000,31790.54011,1.96240,410.524,33.563,45.072,45.000,0.00,0.06,-272.87,-272.92,-4,535,-952,18.9,1.0,-38.2,19.3,1.1,-37.5,0.48,1.93,-21.7,25.6
2016-12-25 00:10:00,0.0,1.96192,0.00042,410.386,0.038,0.0280,0.0019,140.001,45.000,31790.00249,1.96243,410.524,33.564,45.072,45.000,0.00,0.06,-272.87,-272.91,-4,535,-952,18.9,1.0,-38.2,19.3,1.1,-37.5,0.48,1.94,-21.7,25.5
2016-12-25 00:11:00,0.0,1.96182,0.00034,410.379,0.026,0.0286,0.0018,139.999,45.000,31787.99256,1.96238,410.520,33.563,45.072,45.000,0.00,0.06,-272.87,-272.91,-4,535,-952,18.9,1.0,-38.1,19.3,1.1,-37.5,0.48,1.94,-21.7,25.5
2016-12-25 00:12:00,0.0,1.96202,0.00044,410.392,0.025,0.0293,0.0020,140.001,45.000,31788.49324,1.96257,410.536,33.563,45.072,45.000,0.00,0.06,-272.88,-272.92,-4,535,-952,18.9,1.1,-37.8,19.3,1.1,-37.3,0.48,1.94,-21.8,25.5
2016-12-25 00:13:00,0.0,1.96186,0.00036,410.398,0.035,0.0305,0.0017,139.997,45.000,31787.36889,1.96248,410.548,33.563,45.072,45.000,0.00,0.06,-272.88,-272.91,-4,535,-952,18.9,1.1,-37.5,19.3,1.1,-37.0,0.48,1.96,-21.7,25.5
2016-12-25 00:14:00,0.0,1.96184,0.00038,410.406,0.035,0.0312,0.0017,139.998,45.000,31788.71975,1.96243,410.559,33.558,45.072,45.000,0.00,0.06,-272.88,-272.90,-4,535,-952,18.9,1.1,-37.1,19.3,1.2,-36.8,0.48,1.96,-21.8,25.5
2016-12-25 00:15:00,0.0,1.96179,0.00031,410.403,0.045,0.0315,0.0019,139.999,45.000,31789.90205,1.96240,410.558,33.531,45.072,45.000,0.00,0.06,-272.89,-272.92,-4,535,-952,18.9,1.2,-36.9,19.3,1.2,-36.5,0.48,1.98,-21.7,25.5
2016-12-25 00:16:00,0.0,1.96197,0.00031,410.430,0.026,0.0325,0.0013,139.999,45.000,31788.88141,1.96261,410.590,33.524,45.072,45.000,0.00,0.06,-272.88,-272.92,-4,535,-952,18.9,1.2,-36.6,19.3,1.2,-36.2,0.48,1.98,-21.7,25.6
2016-12-25 00:17:00,0.0,1.96171,0.00044,410.410,0.048,0.0338,0.0016,139.998,45.000,31789.67998,1.96234,410.579,33.564,45.072,45.000,0.00,0.06,-272.87,-272.91,-4,535,-952,18.9,1.2,-36.3,19.3,1.3,-36.0,0.48,1.99,-21.8,25.6
2016-12-25 00:18:00,0.0,1.96198,0.00033,410.373,0.034,0.0343,0.0015,139.999,45.000,31789.43333,1.96267,410.542,33.577,45.072,45.000,0.00,0.06,-272.88,-272.92,-4,535,-952,18.9,1.3,-36.1,19.3,1.3,-35.8,0.48,1.98,-21.7,25.6
2016-12-25 00:19:00,0.0,1.96187,0.00046,410.284,0.060,0.0350,0.0020,140.001,45.000,31790.06571,1.96256,410.457,33.580,45.072,45.000,0.00,0.06,-272.88,-272.91,-4,535,-952,18.9,1.3,-35.9,19.3,1.3,-35.6,0.48,1.98,-21.7,25.6
2016-12-25 00:20:00,0.0,1.96183,0.00038,410.212,0.025,0.0351,0.0015,139.998,45.000,31789.27414,1.96251,410.386,33.573,45.072,45.000,0.00,0.06,-272.88,-272.90,-4,535,-952,18.9,1.3,-35.7,19.3,1.3,-35.3,0.48,1.97,-21.7,25.5
2016-12-25 00:21:00,0.0,1.96151,0.00037,410.172,0.031,0.0356,0.0011,139.997,45.000,31790.20243,1.96221,410.349,33.563,45.072,45.000,0.00,0.06,-272.88,-272.90,-4,535,-952,18.9,1.4,-35.5,19.3,1.4,-35.1,0.48,1.96,-21.7,25.5
2016-12-25 00:22:00,0.0,1.96159,0.00039,410.176,0.039,0.0365,0.0021,139.998,45.000,31790.23703,1.96224,410.356,33.562,45.072,45.000,0.00,0.06,-272.88,-272.92,-4,535,-952,18.9,1.4,-35.3,19.3,1.4,-35.0,0.48,1.95,-21.8,25.5
2016-12-25 00:23:00,0.0,1.96162,0.00049,410.197,0.033,0.0368,0.0019,139.999,45.000,31791.18228,1.96237,410.377,33.563,45.072,45.000,0.00,0.06,-272.87,-272.91,-4,535,-952,18.9,1.4,-35.2,19.3,1.4,-34.8,0.48,1.95,-21.7,25.5
2016-12-25 00:24:00,0.0,1.96196,0.00037,410.206,0.030,0.0370,0.0014,139.998,45.000,31792.57285,1.96264,410.388,33.563,45.072,45.000,0.00,0.06,-272.88,-272.91,-4,535,-952,18.9,1.4,-35.0,19.3,1.4,-34.6,0.48,1.94,-21.7,25.6
2016-12-25 00:25:00,0.0,1.96219,0.00050,410.241,0.040,0.0377,0.0016,140.002,45.000,31793.24557,1.96291,410.426,33.567,45.072,45.000,0.00,0.06,-272.88,-272.92,-4,535,-952,18.9,1.4,-35.1,19.3,1.4,-34.6,0.48,1.93,-21.7,25.6
2016-12-25 00:26:00,0.0,1.96260,0.00047,410.274,0.038,0.0381,0.0021,140.000,45.000,31793.84288,1.96332,410.459,33.587,45.072,45.000,0.00,0.06,-272.88,-272.91,-4,535,-952,18.9,1.4,-35.0,19.3,1.4,-34.6,0.48,1.93,-21.8,25.5
2016-12-25 00:27:00,0.0,1.96257,0.00034,410.297,0.035,0.0364,0.0019,140.001,45.000,31794.69968,1.96329,410.479,33.581,45.072,45.000,0.00,0.06,-272.87,-272.91,-4,535,-952,18.9,1.4,-35.1,19.3,1.4,-34.6,0.48,1.92,-21.7,25.5
2016-12-25 00:28:00,0.0,1.96281,0.00042,410.307,0.027,0.0359,0.0017,139.997,45.000,31793.11853,1.96349,410.484,33.579,45.072,45.000,0.00,0.06,-272.88,-272.91,-4,535,-952,18.9,1.4,-35.4,19.3,1.4,-34.9,0.48,1.93,-21.7,25.5
2016-12-25 00:29:00,0.0,1.96320,0.00034,410.345,0.024,0.0359,0.0020,139.997,45.000,31792.79717,1.96390,410.521,33.564,45.072,45.000,0.00,0.06,-272.88,-272.91,-4,535,-952,18.9,1.3,-35.7,19.4,1.4,-35.0,0.48,1.94,-21.7,25.5
2016-12-25 00:30:00,0.0,1.96297,0.00045,410.308,0.042,0.0346,0.0019,140.003,45.000,31795.14821,1.96364,410.480,33.567,45.072,45.000,0.00,0.06,-272.87,-272.91,-4,535,-952,18.9,1.3,-35.9,19.3,1.4,-35.2,0.48,1.94,-21.7,25.5
2016-12-25 00:31:00,0.0,1.96346,0.00040,410.332,0.040,0.0342,0.0017,139.999,45.000,31792.46691,1.96407,410.499,33.565,45.072,45.000,0.00,0.06,-272.88,-272.90,-4,535,-952,18.9,1.3,-36.2,19.3,1.3,-35.5,0.48,1.96,-21.8,25.5
2016-12-25 00:32:00,0.0,1.96366,0.00031,410.350,0.031,0.0330,0.0013,139.999,45.000,31792.13894,1.96432,410.513,33.564,45.072,45.000,0.00,0.06,-272.89,-272.92,-4,535,-952,18.9,1.2,-36.4,19.3,1.3,-35.7,0.48,1.97,-21.7,25.5
2016-12-25 00:33:00,0.0,1.96438,0.00040,410.366,0.030,0.0325,0.0016,139.998,45.000,31791.75183,1.96496,410.525,33.563,45.072,45.000,0.00,0.06,-272.88,-272.91,-4,535,-952,18.9,1.2,-36.5,19.3,1.3,-35.9,0.48,1.98,-21.7,25.5
2016-12-25 00:34:00,0.0,1.96418,0.00041,410.459,0.051,0.0329,0.0017,139.998,45.000,31790.83460,1.96482,410.620,33.563,45.072,45.000,0.00,0.06,-272.87,-272.91,-4,535,-952,18.9,1.2,-36.6,19.3,1.2,-36.0,0.48,1.98,-21.7,25.5
2016-12-25 00:35:00,0.0,1.96376,0.00047,410.425,0.039,0.0338,0.0022,139.997,45.000,31790.50815,1.96444,410.592,33.556,45.072,45.000,0.00,0.06,-272.88,-272.92,-4,535,-952,18.9,1.2,-36.5,19.3,1.2,-36.1,0.48,1.99,-21.7,25.6
2016-12-25 00:36:00,0.0,1.96434,0.00039,410.462,0.040,0.0332,0.0013,139.996,45.000,31790.40335,1.96498,410.627,33.545,45.072,45.000,0.00,0.06,-272.88,-272.92,-4,535,-952,18.9,1.2,-36.5,19.3,1.3,-35.9,0.48,1.98,-21.7,25.5
2016-12-25 00:37:00,0.0,1.96407,0.00041,410.399,0.031,0.0330,0.0015,139.998,45.000,31789.89863,1.96470,410.561,33.560,45.072,45.000,0.00,0.06,-272.87,-272.91,-4,535,-952,18.9,1.2,-36.5,19.4,1.3,-35.9,0.48,1.98,-21.7,25.5
2016-12-25 00:38:00,0.0,1.96409,0.00032,410.427,0.037,0.0320,0.0019,140.001,45.000,31793.14742,1.96471,410.585,33.563,45.072,45.000,0.00,0.06,-272.88,-272.92,-4,535,-952,18.9,1.2,-36.6,19.4,1.2,-36.0,0.48,1.97,-21.7,25.5
2016-12-25 00:39:00,0.0,1.96402,0.00036,410.404,0.043,0.0322,0.0013,139.996,45.000,31790.85218,1.96463,410.563,33.564,45.072,45.000,0.00,0.06,-272.88,-272.92,-4,535,-952,18.9,1.2,-36.7,19.4,1.2,-36.1,0.48,1.96,-21.7,25.5
2016-12-25 00:40:00,0.0,1.96396,0.00043,410.462,0.046,0.0327,0.0016,139.999,45.000,31790.81035,1.96459,410.621,33.563,45.072,45.000,0.00,0.06,-272.88,-272.90,-4,535,-952,18.9,1.2,-36.7,19.4,1.2,-36.2,0.48,1.96,-21.7,25.5
2016-12-25 00:41:00,0.0,1.96442,0.00048,410.429,0.045,0.0330,0.0015,139.999,45.000,31791.89084,1.96504,410.592,33.562,45.072,45.000,0.00,0.06,-272.88,-272.91,-4,535,-952,18.9,1.2,-36.5,19.4,1.2,-36.1,0.48,1.94,-21.7,25.5
2016-12-25 00:42:00,0.0,1.96414,0.00041,410.425,0.038,0.0329,0.0017,139.998,45.000,31793.61946,1.96479,410.586,33.564,45.072,45.000,0.00,0.06,-272.89,-272.92,-4,535,-952,18.9,1.2,-36.5,19.4,1.2,-36.0,0.48,1.94,-21.7,25.5
2016-12-25 00:43:00,0.0,1.96505,0.00084,410.423,0.032,0.0330,0.0020,139.998,45.000,31792.37282,1.96566,410.588,33.559,45.072,45.000,0.00,0.06,-272.88,-272.91,-4,535,-952,18.9,1.2,-36.6,19.4,1.2,-36.0,0.48,1.93,-21.7,25.5
2016-12-25 00:44:00,0.0,1.96401,0.00048,410.431,0.036,0.0321,0.0016,139.999,45.000,31792.73289,1.96466,410.588,33.558,45.072,45.000,0.00,0.06,-272.87,-272.91,-4,535,-952,18.9,1.2,-36.9,19.3,1.2,-36.2,0.48,1.93,-21.7,25.5
2016-12-25 00:45:00,0.0,1.96364,0.00036,410.404,0.030,0.0316,0.0022,139.997,45.000,31790.89329,1.96426,410.559,33.557,45.072,45.000,0.00,0.06,-272.88,-272.92,-4,535,-952,18.9,1.2,-37.1,19.4,1.2,-36.4,0.48,1.94,-21.7,25.6
2016-12-25 00:46:00,0.0,1.96419,0.00044,410.431,0.041,0.0310,0.0018,139.999,45.000,31790.55051,1.96474,410.583,33.562,45.072,45.000,0.00,0.06,-272.88,-272.91,-4,535,-952,18.9,1.1,-37.4,19.4,1.2,-36.7,0.48,1.94,-21.7,25.6
2016-12-25 00:47:00,0.0,1.96389,0.00036,410.416,0.029,0.0302,0.0015,139.998,45.000,31790.97076,1.96450,410.567,33.559,45.072,45.000,0.00,0.06,-272.87,-272.90,-4,535,-952,18.9,1.1,-37.6,19.4,1.2,-36.8,0.48,1.94,-21.7,25.6
2016-12-25 00:48:00,0.0,1.96358,0.00030,410.419,0.043,0.0301,0.0018,139.999,45.000,31792.02119,1.96418,410.567,33.563,45.072,45.000,0.00,0.06,-272.88,-272.91,-4,535,-952,18.9,1.1,-37.7,19.4,1.1,-37.0,0.48,1.96,-21.7,25.6
2016-12-25 00:49:00,0.0,1.96397,0.00033,410.431,0.036,0.0305,0.0016,140.001,45.000,31790.86557,1.96453,410.582,33.563,45.072,45.000,0.00,0.06,-272.88,-272.92,-4,535,-952,18.9,1.1,-37.6,19.4,1.1,-37.0,0.48,1.96,-21.7,25.6
2016-12-25 00:50:00,0.0,1.96431,0.00036,410.447,0.027,0.0295,0.0019,140.001,45.000,31790.53147,1.96489,410.592,33.570,45.072,45.000,0.00,0.06,-272.87,-272.91,-4,535,-952,18.9,1.1,-37.7,19.4,1.1,-37.0,0.48,1.97,-21.7,25.6
2016-12-25 00:51:00,0.0,1.96456,0.00036,410.433,0.032,0.0299,0.0016,139.999,45.000,31789.98610,1.96511,410.580,33.582,45.072,45.000,0.00,0.06,-272.87,-272.91,-4,535,-952,18.9,1.1,-37.8,19.4,1.1,-37.0,0.48,1.97,-21.7,25.6
2016-12-25 00:52:00,0.0,1.96483,0.00032,410.425,0.037,0.0292,0.0016,139.997,45.000,31791.45673,1.96539,410.569,33.590,45.072,45.000,0.00,0.06,-272.88,-272.92,-4,535,-952,18.9,1.1,-37.9,19.3,1.1,-37.2,0.48,1.98,-21.7,25.5
2016-12-25 00:53:00,0.0,1.96492,0.00035,410.412,0.040,0.0302,0.0014,140.000,45.000,31792.73303,1.96552,410.562,33.563,45.072,45.000,0.00,0.06,-272.88,-272.92,-4,535,-952,18.9,1.1,-37.7,19.3,1.1,-37.0,0.48,1.98,-21.7,25.5
2016-12-25 00:54:00,0.0,1.96497,0.00026,410.421,0.034,0.0300,0.0017,139.998,45.000,31791.60690,1.96554,410.570,33.568,45.072,45.000,0.00,0.06,-272.87,-272.90,-4,535,-952,18.9,1.1,-37.6,19.3,1.1,-37.0,0.48,1.99,-21.7,25.6
2016-12-25 00:55:00,0.0,1.96439,0.00050,410.397,0.035,0.0306,0.0016,139.997,45.000,31792.35074,1.96501,410.547,33.569,45.072,45.000,0.00,0.06,-272.88,-272.91,-4,535,-952,18.9,1.1,-37.4,19.3,1.1,-36.9,0.48,1.98,-21.7,25.5
2016-12-25 00:56:00,0.0,1.96438,0.00031,410.410,0.028,0.0305,0.0016,139.998,45.000,31791.65785,1.96495,410.562,33.569,45.072,45.000,0.00,0.06,-272.89,-272.91,-4,535,-952,18.9,1.1,-37.5,19.3,1.2,-36.7,0.48,1.97,-21.7,25.6
2016-12-25 00:57:00,0.0,1.96424,0.00036,410.438,0.036,0.0309,0.0017,139.998,45.000,31790.98520,1.96485,410.589,33.571,45.072,45.000,0.00,0.06,-272.88,-272.90,-4,535,-952,18.9,1.1,-37.5,19.4,1.2,-36.7,0.48,1.97,-21.7,25.5
2016-12-25 00:58:00,0.0,1.96424,0.00037,410.403,0.038,0.0301,0.0014,139.999,45.000,31791.04618,1.96483,410.552,33.576,45.072,45.000,0.00,0.06,-272.88,-272.91,-4,535,-952,18.9,1.1,-37.5,19.3,1.1,-37.0,0.48,1.96,-21.8,25.5
2016-12-25 00:59:00,0.0,1.96453,0.00023,410.429,0.025,0.0304,0.0019,139.996,45.000,31787.97900,1.96512,410.579,33.578,45.072,45.000,0.00,0.06,-272.88,-272.92,-4,535,-952,18.9,1.1,-37.4,19.4,1.2,-36.7,0.48,1.94,-21.7,25.5
2016-12-25 01:00:00,0.0,1.96409,0.00040,410.401,0.029,0.0304,0.0019,139.998,45.000,31790.41895,1.96471,410.551,33.571,45.072,45.000,0.00,0.06,-272.87,-272.91,-4,535,-952,18.9,1.1,-37.4,19.3,1.2,-36.7,0.48,1.94,-21.7,25.5
2016-12-25 01:01:00,0.0,1.96408,0.00038,410.423,0.036,0.0308,0.0015,139.997,45.000,31791.58264,1.96465,410.574,33.563,45.072,45.000,0.00,0.06,-272.87,-272.91,-4,535,-952,18.9,1.1,-37.3,19.4,1.2,-36.7,0.48,1.94,-21.7,25.5
2016-12-25 01:02:00,0.0,1.96415,0.00040,410.369,0.052,0.0309,0.0017,139.998,45.000,31792.51175,1.96476,410.525,33.563,45.072,45.000,0.00,0.06,-272.88,-272.92,-4,535,-952,18.9,1.2,-37.1,19.4,1.2,-36.6,0.48,1.94,-21.7,25.5
2016-12-25 01:03:00,0.0,1.96394,0.00047,410.340,0.032,0.0322,0.0016,139.997,45.000,31791.92949,1.96455,410.498,33.563,45.072,45.000,0.00,0.06,-272.87,-272.92,-4,535,-952,18.9,1.2,-36.8,19.3,1.2,-36.3,0.48,1.93,-21.8,25.5
2016-12-25 01:04:00,0.0,1.96403,0.00046,410.365,0.038,0.0323,0.0018,139.996,45.000,31792.67240,1.96468,410.522,33.563,45.072,45.000,0.00,0.06,-272.87,-272.91,-4,535,-952,18.9,1.2,-36.6,19.4,1.2,-36.2,0.48,1.94,-21.7,25.5
2016-12-25 01:05:00,0.0,1.96396,0.00040,410.370,0.031,0.0332,0.0015,139.999,45.000,31794.09385,1.96457,410.535,33.565,45.072,45.000,0.00,0.06,-272.88,-272.91,-4,535,-952,18.9,1.2,-36.4,19.4,1.3,-35.9,0.48,1.94,-21.7,25.5
2016-12-25 01:06:00,0.0,1.96421,0.00042,410.357,0.027,0.0325,0.0025,140.000,45.000,31792.97054,1.96482,410.517,33.563,45.072,45.000,0.00,0.06,-272.89,-272.92,-4,535,-952,18.9,1.2,-36.5,19.4,1.3,-35.8,0.48,1.94,-21.7,25.5
2016-12-25 01:07:00,0.0,1.96422,0.00040,410.396,0.035,0.0324,0.0017,140.001,45.000,31792.71391,1.96485,410.555,33.563,45.072,45.000,0.00,0.06,-272.88,-272.91,-4,535,-952,18.9,1.2,-36.7,19.4,1.2,-36.1,0.48,1.96,-21.8,25.5
2016-12-25 01:08:00,0.0,1.96405,0.00034,410.370,0.037,0.0307,0.0020,140.002,45.000,31793.41520,1.96465,410.523,33.558,45.072,45.000,0.00,0.06,-272.88,-272.91,-4,535,-952,18.9,1.2,-37.0,19.4,1.2,-36.3,0.48,1.96,-21.7,25.5
2016-12-25 01:09:00,0.0,1.96422,0.00042,410.362,0.030,0.0311,0.0018,139.999,45.000,31790.80932,1.96482,410.514,33.537,45.072,45.000,0.00,0.06,-272.88,-272.92,-4,535,-952,18.9,1.2,-37.0,19.4,1.2,-36.4,0.48,1.97,-21.7,25.5
2016-12-25 01:10:00,0.0,1.96426,0.00035,410.379,0.029,0.0321,0.0022,139.996,45.000,31789.81885,1.96487,410.538,33.534,45.072,45.000,0.00,0.06,-272.88,-272.91,-4,535,-952,18.9,1.2,-37.0,19.4,1.2,-36.5,0.48,1.98,-21.7,25.5
2016-12-25 01:11:00,0.0,1.96424,0.00047,410.380,0.030,0.0313,0.0019,140.000,45.000,31792.09122,1.96485,410.533,33.538,45.072,45.000,0.00,0.06,-272.88,-272.91,-4,535,-952,18.9,1.2,-37.0,19.4,1.2,-36.5,0.48,1.98,-21.8,25.6
2016-12-25 01:12:00,0.0,1.96401,0.00037,410.356,0.031,0.0324,0.0016,140.000,45.000,31793.33930,1.96463,410.517,33.557,45.072,45.000,0.00,0.06,-272.88,-272.91,-4,535,-952,18.9,1.2,-36.8,19.4,1.2,-36.2,0.48,1.98,-21.8,25.6
2016-12-25 01:13:00,0.0,1.96412,0.00044,410.368,0.031,0.0326,0.0020,139.998,45.000,31792.22571,1.96474,410.529,33.550,45.072,45.000,0.00,0.06,-272.88,-272.91,-4,535,-952,18.9,1.2,-36.5,19.4,1.2,-36.1,0.48,1.98,-21.8,25.5
2016-12-25 01:14:00,0.0,1.96417,0.00035,410.366,0.021,0.0333,0.0019,139.998,45.000,31792.66895,1.96482,410.529,33.552,45.072,45.000,0.00,0.06,-272.88,-272.90,-4,535,-952,18.9,1.2,-36.4,19.4,1.3,-35.9,0.48,1.98,-21.7,25.6
2016-12-25 01:15:00,0.0,1.96449,0.00033,410.361,0.030,0.0341,0.0013,139.999,45.000,31791.50011,1.96514,410.531,33.529,45.072,45.000,0.00,0.06,-272.88,-272.91,-4,535,-952,18.9,1.3,-36.2,19.4,1.3,-35.7,0.48,1.97,-21.7,25.6
2016-12-25 01:16:00,0.0,1.96442,0.00032,410.373,0.037,0.0343,0.0018,139.998,45.000,31791.49976,1.96507,410.541,33.535,45.072,45.000,0.00,0.06,-272.88,-272.92,-4,535,-952,18.9,1.3,-36.1,19.4,1.3,-35.6,0.48,1.97,-21.7,25.6
2016-12-25 01:17:00,0.0,1.96429,0.00036,410.355,0.035,0.0340,0.0016,139.997,45.000,31791.06678,1.96496,410.524,33.549,45.072,45.000,0.00,0.06,-272.88,-272.91,-4,535,-952,18.9,1.2,-36.3,19.4,1.3,-35.7,0.48,1.96,-21.8,25.6
2016-12-25 01:18:00,0.0,1.96433,0.00030,410.382,0.035,0.0309,0.0014,139.999,45.000,31794.83486,1.96491,410.534,33.546,45.072,45.000,0.00,0.06,-272.88,-272.92,-4,535,-952,18.9,1.2,-37.0,19.4,1.2,-36.1,0.48,1.95,-21.7,25.6
2016-12-25 01:19:00,0.0,1.96457,0.00037,410.374,0.028,0.0296,0.0012,140.001,45.000,31794.24920,1.96512,410.520,33.532,45.072,45.000,0.00,0.06,-272.88,-272.92,-4,535,-952,18.9,1.1,-37.8,19.4,1.2,-36.7,0.48,1.94,-21.7,25.6
2016-12-25 01:20:00,0.0,1.96471,0.00043,410.410,0.031,0.0279,0.0022,139.999,45.000,31792.04798,1.96525,410.548,33.534,45.072,45.000,0.00,0.06,-272.88,-272.91,-4,535,-952,18.9,1.0,-38.3,19.3,1.1,-37.3,0.48,1.93,-21.7,25.6
2016-12-25 01:21:00,0.0,1.96433,0.00032,410.389,0.032,0.0271,0.0015,139.998,45.000,31791.58836,1.96486,410.522,33.536,45.072,45.000,0.00,0.06,-272.87,-272.91,-4,535,-952,18.9,1.0,-38.5,19.3,1.1,-37.6,0.48,1.93,-21.7,25.6
2016-12-25 01:22:00,0.0,1.96443,0.00027,410.390,0.039,0.0276,0.0019,139.998,45.000,31788.57286,1.96498,410.526,33.549,45.072,45.000,0.00,0.06,-272.88,-272.91,-4,535,-952,18.9,1.0,-38.6,19.4,1.1,-37.7,0.48,1.93,-21.8,25.5
2016-12-25 01:23:00,0.0,1.96440,0.00034,410.424,0.029,0.0281,0.0018,139.998,45.000,31788.39466,1.96495,410.562,33.544,45.072,45.000,0.00,0.06,-272.88,-272.91,-4,535,-952,18.9,1.0,-38.7,19.4,1.0,-37.7,0.48,1.93,-21.7,25.6
2016-12-25 01:24:00,0.0,1.96430,0.00031,410.399,0.035,0.0280,0.0027,140.002,45.000,31789.88750,1.96484,410.537,33.507,45.072,45.000,0.00,0.06,-272.88,-272.91,-4,535,-952,18.9,1.0,-38.4,19.3,1.0,-37.7,0.48,1.94,-21.7,25.6
2016-12-25 01:25:00,0.0,1.96419,0.00036,410.387,0.033,0.0297,0.0015,140.000,45.000,31790.07077,1.96475,410.534,33.507,45.072,45.000,0.00,0.06,-272.88,-272.91,-4,535,-952,18.9,1.1,-37.9,19.4,1.1,-37.4,0.48,1.94,-21.7,25.6
2016-12-25 01:26:00,0.0,1.96429,0.00040,410.380,0.031,0.0302,0.0016,139.997,45.000,31790.04766,1.96488,410.528,33.504,45.072,45.000,0.00,0.06,-272.88,-272.91,-4,535,-952,18.9,1.1,-37.5,19.4,1.1,-37.0,0.48,1.95,-21.7,25.5
2016-12-25 01:27:00,0.0,1.96453,0.00029,410.391,0.021,0.0310,0.0015,139.997,45.000,31789.42748,1.96511,410.545,33.510,45.072,45.000,0.00,0.06,-272.88,-272.91,-4,535,-952,18.9,1.1,-37.2,19.4,1.2,-36.7,0.48,1.95,-21.8,25.5
2016-12-25 01:28:00,0.0,1.96458,0.00035,410.395,0.032,0.0311,0.0016,139.999,45.000,31789.54545,1.96519,410.548,33.539,45.072,45.000,0.00,0.06,-272.87,-272.91,-4,535,-952,18.9,1.2,-37.0,19.3,1.2,-36.6,0.48,1.97,-21.7,25.5
2016-12-25 01:29:00,0.0,1.96470,0.00034,410.413,0.024,0.0298,0.0018,139.999,45.000,31789.26378,1.96528,410.559,33.553,45.072,45.000,0.00,0.06,-272.88,-272.92,-4,535,-952,18.9,1.1,-37.3,19.3,1.2,-36.7,0.48,1.97,-21.8,25.5
2016-12-25 01:30:00,0.0,1.96419,0.00038,410.411,0.030,0.0287,0.0011,140.000,45.000,31790.89274,1.96475,410.552,33.544,45.072,45.000,0.00,0.06,-272.88,-272.91,-4,535,-952,18.9,1.0,-38.1,19.3,1.1,-37.1,0.48,1.98,-21.8,25.6
2016-12-25 01:31:00,0.0,1.96446,0.00023,410.382,0.023,0.0278,0.0018,139.999,45.000,31790.08693,1.96498,410.521,33.549,45.072,45.000,0.00,0.06,-272.87,-272.91,-4,535,-952,18.9,1.0,-38.6,19.4,1.1,-37.7,0.48,1.98,-21.7,25.5
2016-12-25 01:32:00,0.0,1.96466,0.00033,410.388,0.041,0.0282,0.0024,139.998,45.000,31789.45327,1.96520,410.526,33.553,45.072,45.000,0.00,0.06,-272.88,-272.91,-4,535,-952,18.9,1.0,-38.7,19.4,1.1,-37.7,0.48,1.98,-21.7,25.6
2016-12-25 01:33:00,0.0,1.96462,0.00038,410.397,0.032,0.0273,0.0014,139.998,45.000,31788.78218,1.96515,410.533,33.561,45.072,45.000,0.00,0.06,-272.89,-272.92,-4,535,-952,18.9,1.0,-38.6,19.4,1.0,-37.7,0.48,1.98,-21.7,25.6
2016-12-25 01:34:00,0.0,1.96443,0.00045,410.395,0.024,0.0289,0.0016,140.000,45.000,31789.51709,1.96498,410.536,33.559,45.072,45.000,0.00,0.06,-272.87,-272.91,-4,535,-952,18.9,1.0,-38.2,19.4,1.0,-37.7,0.48,1.98,-21.8,25.6
2016-12-25 01:35:00,0.0,1.96519,0.00038,410.370,0.027,0.0298,0.0017,139.996,45.000,31789.27964,1.96576,410.517,33.562,45.072,45.000,0.00,0.06,-272.87,-272.91,-4,535,-952,18.9,1.1,-37.8,19.3,1.1,-37.3,0.48,1.97,-21.8,25.5
2016-12-25 01:36:00,0.0,1.96466,0.00036,410.370,0.037,0.0315,0.0014,140.000,45.000,31792.74635,1.96530,410.525,33.562,45.072,45.000,0.00,0.06,-272.88,-272.91,-4,535,-952,18.9,1.1,-37.3,19.3,1.1,-36.9,0.48,1.97,-21.8,25.6
2016-12-25 01:37:00,0.0,1.96424,0.00026,410.387,0.042,0.0316,0.0015,139.998,45.000,31790.00604,1.96485,410.542,33.563,45.072,45.000,0.00,0.06,-272.88,-272.91,-4,535,-952,18.9,1.2,-37.0,19.3,1.2,-36.6,0.48,1.95,-21.8,25.6
2016-12-25 01:38:00,0.0,1.96382,0.00037,410.392,0.024,0.0321,0.0016,139.998,45.000,31789.41470,1.96445,410.550,33.562,45.072,45.000,0.00,0.06,-272.88,-272.90,-4,535,-952,18.9,1.2,-37.0,19.4,1.2,-36.4,0.48,1.94,-21.7,25.6
2016-12-25 01:39:00,0.0,1.96372,0.00038,410.383,0.033,0.0311,0.0015,140.001,45.000,31789.30466,1.96433,410.536,33.558,45.072,45.000,0.00,0.06,-272.88,-272.91,-4,535,-952,18.9,1.2,-37.0,19.3,1.2,-36.3,0.48,1.94,-21.8,25.5
2016-12-25 01:40:00,0.0,1.96345,0.00028,410.352,0.033,0.0314,0.0017,139.998,45.000,31790.26672,1.96408,410.509,33.544,45.072,45.000,0.00,0.06,-272.88,-272.91,-4,535,-952,18.9,1.2,-36.9,19.4,1.2,-36.5,0.48,1.93,-21.8,25.6
2016-12-25 01:41:00,0.0,1.96325,0.00044,410.324,0.038,0.0314,0.0016,140.001,45.000,31792.88122,1.96388,410.479,33.527,45.072,45.000,0.00,0.06,-272.87,-272.91,-4,535,-952,18.9,1.2,-37.0,19.3,1.2,-36.5,0.48,1.93,-21.8,25.6
2016-12-25 01:42:00,0.0,1.96301,0.00035,410.292,0.030,0.0309,0.0012,139.998,45.000,31792.76459,1.96359,410.444,33.504,45.072,45.000,0.00,0.06,-272.87,-272.91,-4,535,-952,18.9,1.1,-37.1,19.3,1.2,-36.5,0.48,1.94,-21.8,25.5
2016-12-25 01:43:00,0.0,1.96314,0.00051,410.344,0.031,0.0308,0.0019,139.996,45.000,31790.49145,1.96375,410.495,33.514,45.072,45.000,0.00,0.06,-272.88,-272.92,-4,535,-952,18.9,1.1,-37.3,19.3,1.2,-36.5,0.48,1.93,-21.7,25.5
2016-12-25 01:44:00,0.0,1.96316,0.00045,410.323,0.030,0.0299,0.0015,139.997,45.000,31789.74777,1.96375,410.470,33.521,45.072,45.000,0.00,0.06,-272.87,-272.91,-4,535,-952,18.9,1.1,-37.5,19.3,1.2,-36.8,0.48,1.94,-21.7,25.6
2016-12-25 01:45:00,0.0,1.96292,0.00036,410.327,0.040,0.0303,0.0019,139.999,45.000,31788.56742,1.96348,410.476,33.543,45.072,45.000,0.00,0.06,-272.87,-272.91,-4,535,-952,18.9,1.1,-37.4,19.4,1.2,-36.7,0.48,1.94,-21.7,25.6